Regional Weather Roundup
Issued by NWS Portland, ME

Current Version | Previous Version | Text Only | Print | Product List | Glossary Off
Versions: 1 2 3 4 5 6 7 8 9 10 11 12 13 14 15 16 17 18 19 20 21 22 23 24 25 26 27 28 29 30 31 32 33 34 35 36 37 38 39 40 41 42 43 44 45 46 47 48 49 50
475 ASUS41 KGYX 131610 RWRGYX WEATHER ROUNDUP FOR MAINE AND NEW HAMPSHIRE NATIONAL WEATHER SERVICE GRAY ME 1100 AM EST WED DEC 13 2017 MEZ002-005-006-010-012-015-018-020-021-024-026-027-029-131700- MAINE CITY SKY/WX TMP DP RH WIND PRES REMARKS PORTLAND PTSUNNY 26 22 84 VRB7 29.14F SANFORD CLOUDY 26 18 71 W18G25 29.15F WCI 13 BAR HARBOR CLOUDY 29 26 89 VRB5 29.02F WISCASSET CLOUDY 25 19 78 VRB5 29.12F ROCKLAND CLOUDY 27 19 72 W10 29.07F WCI 17 FRYEBURG CLOUDY 25 10 53 W8G22 29.11F LEWISTONAUBURN PTSUNNY 24 15 68 NW10 29.11F WCI 14 AUGUSTA SUNNY 25 16 68 W9 29.08F WATERVILLE SUNNY 27 17 66 W12 29.02F WCI 17 BANGOR PTSUNNY 25 20 81 NW13 29.04F WCI 14 GREENVILLE NOT AVBL MILLINOCKET CLOUDY 22 17 81 W10G23 28.99F WCI 11 HOULTON CLOUDY 26 23 88 W12G20 28.93S WCI 16 PRESQUE ISLE LGT SNOW 27 23 85 W13 28.91S FOG WCI 16 FRENCHVILLE LGT SNOW 31 30 96 NW7 28.84F FOG CARIBOU LGT SNOW 31 28 89 SW13 28.87S FOG $$ NHZ002-005-008-009-011-012-014-131700- NEW HAMPSHIRE CITY SKY/WX TMP DP RH WIND PRES REMARKS PORTSMOUTH PTSUNNY 24 15 69 W9 29.18F ROCHESTER PTSUNNY 25 16 68 W10G28 29.16F WCI 15 NASHUA PTSUNNY 22 14 71 W16G23 29.27F WCI 8 MANCHESTER PTSUNNY 22 13 68 W14 29.24F WCI 9 CONCORD CLOUDY 22 13 68 W14G25 29.23S WCI 9 LACONIA CLOUDY 24 10 55 W12G25 29.18S WCI 13 PLYMOUTH LGT SNOW 21 13 71 W14G23 29.20S WCI 8 BERLIN LGT SNOW 16 11 80 VRB5 29.14F VSB 1 WHITEFIELD LGT SNOW 14 8 77 W15G22 29.19S WCI -1 JAFFREY CLOUDY 17 9 70 W8 29.24S KEENE CLOUDY 20 11 68 NW12G17 29.30F WCI 8 LEBANON CLOUDY 20 9 62 W17G24 29.25S WCI 5 MT WASHINGTON SNOW -4 -4 100 W39G45 N/A VSB 1/16WCI -34 $$ VTZ005-007-008-131700- VERMONT CITY SKY/WX TMP DP RH WIND PRES REMARKS ST JOHNSBURY N/A 15 8 73 MISG 29.23S MONTPELIER MIX PCPN 13 6 74 NW18G30 29.26S WCI -4 BURLINGTON PTSUNNY 16 3 56 NW18G25 29.35S WCI 0 $$ MAZ007-012-024-CTZ003-RIZ002-NYZ038-NYZ072-131700- SOUTHERN NEW ENGLAND AND NY CITY SKY/WX TMP DP RH WIND PRES REMARKS BOSTON PTSUNNY 23 8 52 W26G39 29.29S WCI 6 WORCESTER LGT SNOW 16 7 67 W24G32 29.25F WCI -2 NANTUCKET CLOUDY 26 15 63 W29G38 29.32S WCI 10 PROVIDENCE PTSUNNY 24 7 48 W23G37 29.36F WCI 9 HARTFORD PTSUNNY 21 8 57 W20G31 29.41S WCI 6 ALBANY MOSUNNY 19 5 54 NW28G35 29.45S WCI 1 NEW YORK CITY PTSUNNY 26 11 52 W32G41 29.55F WCI 9 $$ ANZ081-ANZ082-ANZ150-NHZ014-MEZ023>029-131700- COASTAL MARINE OBSERVATIONS STATION/POSITION TIME TEMP WIND PRES WAVE AIR SEA DIR/SP/G HT/PER (UTC) (F) (DEG/KT/KT) (MB) (FT/S) MOUNT DESERT ROC 1600 34 270/ 12/ 13 983.6F MATINICUS ROCK 1500 31 290/ 16/ 19 984.2S ISLE OF SHOALS 1500 24 260/ 27/ 31 988.1R JEFFREYS LEDGE 1536 48 N/A 7/ 6 GEORGES BANK BUO 1450 43 51 988.3 10/ 6 $$ .............KEY.............. WCI - WIND CHILL TC - TEMPERATURE IN CELSIUS VSB - VISIBILITY IN MILES HX - HEAT INDEX FAIR- INDICATES FEW OR NO CLOUDS BELOW 12,000 FT, WITH NO SIGNIFICANT WEATHER AND/OR OBSTRUCTIONS TO VISIBILITY.

USA.gov is the U.S. government's official web portal to all federal, state and local government web resources and services.